ZL4ND Weather Reports


time (UTC)temp
C
wind
direction
speed
KPH
gust
KPH
rain 1hr
cm
rain 24hr
cm
rain mn
cm
humidity
%
barometer
mb
20260509085517 14 284 6.4 20.9 0.00 2.16 1.27 79 997.5
20260509084537 14 260 6.4 24.1 0.00 2.16 1.27 78 997.5
20260509082518 14 298 6.4 25.7 0.00 2.16 1.27 79 997.7
20260509081517 14 280 6.4 19.3 0.00 2.16 1.27 79 997.4
20260509080537 14 284 8.0 25.7 0.00 2.16 1.27 79 997.4
20260509075516 14 261 9.7 33.8 0.00 2.39 1.27 78 997.3
20260509074518 14 246 9.7 25.7 0.00 2.39 1.27 78 997.3
20260509073517 14 265 11.3 30.6 0.00 2.39 1.27 78 996.7
20260509072517 14 260 9.7 29.0 0.00 2.39 1.27 79 996.3
20260509071536 14 258 11.3 20.9 0.00 2.39 1.27 79 996.9
20260509070517 14 263 8.0 20.9 0.00 2.39 1.27 80 996.7
20260509065517 14 275 8.0 24.1 0.00 2.39 1.27 81 996.7
20260509064517 14 274 8.0 37.0 0.00 2.39 1.27 81 996.6
20260509063537 14 259 6.4 20.9 0.00 2.39 1.27 81 997.0
20260509062516 14 267 8.0 20.9 0.00 2.39 1.27 81 997.0
20260509061517 14 249 8.0 30.6 0.00 2.39 1.27 81 997.4
20260509060517 14 254 6.4 20.9 0.00 2.39 1.27 81 997.7
20260509055516 14 252 8.0 19.3 0.00 2.39 1.27 81 998.1
20260509054516 15 250 4.8 19.3 0.00 2.39 1.27 82 998.3
20260509053518 15 256 4.8 17.7 0.00 2.39 1.27 81 998.4
20260509052517 15 45 3.2 9.7 0.00 2.39 1.27 80 998.3
20260509051536 15 195 4.8 14.5 0.00 2.39 1.27 80 998.4
20260509050516 15 272 3.2 17.7 0.00 2.39 1.27 80 998.2
20260509045518 15 249 4.8 20.9 0.00 2.39 1.27 79 998.3
20260509044516 15 218 8.0 17.7 0.00 2.39 1.27 78 998.2
20260509043517 15 274 4.8 11.3 0.00 2.39 1.27 79 998.2
20260509042517 16 254 6.4 41.8 0.00 2.39 1.27 79 997.9
20260509041517 16 253 6.4 32.2 0.00 2.39 1.27 78 997.5
20260509040516 16 308 8.0 22.5 0.00 2.39 1.27 78 997.2
20260509035518 16 283 8.0 20.9 0.00 2.39 1.27 79 997.0
20260509034517 16 286 8.0 24.1 0.00 2.39 1.27 80 997.0
20260509033516 16 266 8.0 17.7 0.00 2.39 1.27 80 997.1
20260509032536 16 273 6.4 14.5 0.00 2.39 1.27 79 996.9
20260509031517 16 249 8.0 20.9 0.00 2.39 1.27 80 996.7
20260509030537 16 264 6.4 16.1 0.00 2.39 1.27 80 996.9
20260509025517 16 305 6.4 27.4 0.00 2.39 1.27 80 996.8
20260509024518 16 35 6.4 16.1 0.00 2.39 1.27 80 996.7
20260509023517 16 246 8.0 22.5 0.00 2.39 1.27 79 996.8
20260509022517 16 241 6.4 17.7 0.00 2.39 1.27 80 997.0
20260509021516 16 268 4.8 16.1 0.00 2.39 1.27 80 997.3
20260509020519 16 265 6.4 22.5 0.00 2.39 1.27 81 997.5
20260509015517 16 260 6.4 14.5 0.00 2.39 1.27 81 997.2
20260509014516 16 260 6.4 30.6 0.00 2.39 1.27 82 997.5
20260509013516 16 246 8.0 30.6 0.00 2.39 1.27 82 997.9
20260509012517 16 264 6.4 19.3 0.00 2.39 1.27 83 997.9
20260509011517 16 265 8.0 30.6 0.03 2.39 1.27 83 997.9
20260509010516 16 251 6.4 24.1 0.03 2.39 1.27 84 997.7
20260509005516 16 255 6.4 29.0 0.03 2.39 1.27 85 997.7
20260509004517 15 283 6.4 14.5 0.03 2.39 1.27 87 997.9
20260509003517 15 283 6.4 19.3 0.03 2.39 1.27 89 998.1
20260509002516 15 257 6.4 20.9 0.05 2.39 1.27 88 998.0
20260509001518 15 259 6.4 19.3 0.03 2.36 1.24 89 998.0
20260509000517 15 282 6.4 17.7 0.08 2.36 1.24 89 997.6
20260508235517 15 276 4.8 20.9 0.08 2.36 1.24 90 998.2
20260508234536 15 251 9.7 30.6 0.08 2.36 1.24 89 998.2
20260508233518 15 241 9.7 22.5 0.08 2.36 1.24 92 998.0
20260508232517 14 259 6.4 27.4 0.05 2.34 1.22 93 998.3
20260508231516 14 241 3.2 12.9 0.10 2.34 1.22 94 998.8
20260508230516 14 245 6.4 22.5 0.08 2.29 1.17 93 998.6
20260508225518 14 252 6.4 27.4 0.13 2.29 1.17 93 998.4
20260508224517 14 259 9.7 35.4 0.15 2.29 1.17 92 997.7
20260508223516 14 254 9.7 20.9 0.15 2.29 1.17 93 997.0
20260508222536 14 246 11.3 27.4 0.15 2.29 1.17 93 997.0
20260508221518 14 260 9.7 29.0 0.13 2.24 1.12 94 997.1
20260508220517 14 255 9.7 27.4 0.18 2.21 1.09 93 997.5
20260508215517 15 257 12.9 32.2 0.15 2.16 1.04 92 997.5
20260508214516 15 261 8.0 49.9 0.15 2.13 1.02 92 997.7
20260508213518 14 262 11.3 37.0 0.15 2.13 1.02 90 997.8
20260508212517 14 257 11.3 48.3 0.15 2.13 1.02 90 997.8
20260508211516 14 252 11.3 41.8 0.15 2.11 0.99 89 998.1
20260508210516 14 251 11.3 37.0 0.10 2.03 0.91 89 997.6
20260508205517 15 268 12.9 33.8 0.10 2.01 0.89 87 997.8
20260508204517 15 270 9.7 25.7 0.08 1.98 0.86 86 997.8
20260508203517 15 260 8.0 20.9 0.08 1.98 0.86 88 997.8
20260508202516 15 255 9.7 24.1 0.08 1.98 0.86 89 997.6
20260508201518 14 251 8.0 22.5 0.08 1.96 0.84 90 997.3
20260508200517 14 248 8.0 17.7 0.05 1.93 0.81 88 997.2
20260508195517 14 252 6.4 20.9 0.03 1.98 0.79 87 997.5
20260508194516 14 247 8.0 22.5 0.03 1.98 0.79 88 997.9
20260508193517 13 248 9.7 22.5 0.03 1.98 0.79 90 998.2
20260508192517 13 246 6.4 14.5 0.03 1.98 0.79 90 998.4
20260508191516 13 250 6.4 19.3 0.08 1.96 0.76 90 998.5
20260508190518 13 6.4 30.6 0.48 1.96 0.76 90 998.9
20260508185517 13 276 6.4 17.7 0.51 1.96 0.76 90 999.1
20260508184536 13 259 6.4 19.3 0.64 1.96 0.76 92 999.1
20260508183516 13 253 6.4 25.7 0.64 1.96 0.76 92 999.0
20260508182518 13 269 6.4 22.5 0.64 1.96 0.76 92 999.4
20260508181517 13 261 6.4 16.1 0.56 1.88 0.69 89 999.3
20260508180517 14 247 8.0 19.3 0.15 1.47 0.28 87 999.1
20260508175516 15 249 6.4 27.4 0.13 1.47 0.25 87 999.0
20260508174538 15 251 4.8 14.5 0.03 1.35 0.13 84 998.8
20260508173517 15 265 4.8 20.9 0.05 1.35 0.13 84 998.8
20260508172517 15 258 6.4 32.2 0.05 1.35 0.13 85 998.7
20260508171656 15 275 8.0 19.3 0.08 1.35 0.13 86 998.5
20260508170517 15 269 6.4 22.5 0.10 1.35 0.13 88 998.5
20260508165517 15 255 3.2 12.9 0.10 1.40 0.13 89 998.6
20260508164536 15 267 4.8 12.9 0.08 1.37 0.10 88 998.3
20260508163517 15 248 9.7 40.2 0.05 1.35 0.08 86 998.3
20260508162537 15 264 6.4 25.7 0.05 1.35 0.08 85 998.3
20260508161516 16 257 8.0 22.5 0.03 1.32 0.05 82 998.3
20260508160516 16 245 8.0 25.7 0.00 1.30 0.03 80 998.3
20260508155517 16 252 9.7 25.7 0.00 1.40 0.03 78 998.2
20260508153517 16 240 8.0 24.1 0.03 1.40 0.03 79 998.3
20260508152516 16 242 8.0 19.3 0.03 1.40 0.03 79 998.4
20260508151517 17 256 9.7 20.9 0.03 1.40 0.03 78 998.7
20260508150537 16 246 11.3 32.2 0.03 1.40 0.03 78 998.7
20260508145516 16 266 8.0 22.5 0.03 1.47 0.03 79 998.7
20260508144516 16 262 8.0 29.0 0.03 1.47 0.03 80 998.6
20260508143517 16 264 4.8 19.3 0.00 1.45 0.00 79 998.8
20260508142537 16 253 8.0 19.3 0.00 1.45 0.00 79 998.8
20260508141517 16 9.7 32.2 0.00 1.45 0.00 79 999.0
20260508140518 16 251 4.8 16.1 0.00 1.45 0.00 80 999.2
20260508135537 16 253 8.0 17.7 0.00 1.55 0.00 81 999.0
20260508134517 16 247 9.7 25.7 0.00 1.55 0.00 81 999.3
20260508133516 16 251 8.0 22.5 0.00 1.55 0.00 81 999.2
20260508132517 16 228 8.0 24.1 0.00 1.55 0.00 83 999.5
20260508131517 16 246 8.0 24.1 0.00 1.55 0.00 84 999.4
20260508130516 16 256 6.4 17.7 0.00 1.55 0.00 85 999.5
20260508125518 16 9.7 41.8 0.00 1.60 0.00 86 999.4
20260508124517 16 253 8.0 29.0 0.00 1.60 0.00 86 999.5
20260508123516 15 244 6.4 20.9 0.00 1.60 0.00 87 999.4
20260508122516 15 253 9.7 30.6 0.00 1.60 0.00 88 999.8
20260508121517 15 256 8.0 19.3 0.03 1.60 0.00 89 999.4
20260508120537 15 239 9.7 37.0 0.05 1.60 0.00 89 999.2
20260508115516 15 259 8.0 24.1 0.08 1.65 1.60 91 999.2
20260508114518 14 251 6.4 25.7 0.08 1.65 1.60 91 999.1
20260508113517 14 250 9.7 29.0 0.13 1.65 1.60 91 999.1
20260508112517 14 255 6.4 24.1 0.15 1.65 1.60 91 999.2
20260508111536 14 271 6.4 19.3 0.15 1.63 1.57 91 999.3
20260508110517 14 272 4.8 17.7 0.18 1.60 1.55 91 999.5
20260508105517 14 263 8.0 32.2 0.20 1.57 1.52 91 999.5
20260508104516 14 254 9.7 20.9 0.33 1.57 1.52 92 1000.1
20260508103518 14 251 8.0 22.5 0.46 1.52 1.47 92 1000.1
20260508102517 14 252 9.7 16.1 0.48 1.50 1.45 92 1000.1
20260508101517 14 271 11.3 38.6 0.51 1.47 1.42 91 1000.8
20260508100536 15 256 6.4 22.5 0.51 1.42 1.37 91 1000.8
20260508095518 15 261 4.8 14.5 0.51 1.40 1.32 90 1001.1
20260508094517 16 245 8.0 20.9 0.36 1.24 1.17 91 1001.4
20260508093517 16 244 11.3 27.4 0.25 1.09 1.02 90 1000.4
20260508092516 16 192 11.3 32.2 0.23 1.04 0.97 89 1000.5
20260508091518 16 243 9.7 25.7 0.20 0.99 0.91 88 1000.6
20260508090517 17 334 9.7 22.5 0.15 0.94 0.86 86 1000.8